Project,Study,Ord_Occ,Event_Num,Cast_ID,Date_Time_UTC,Date_Time_PST,Lat_Dec,Lon_Dec,Sta_ID,Line,Sta,Depth,Pressure,PrQ,Temp1,Temp1Q,Temp2,Temp2Q,TempAve,Salt1,Salt1Q,Salt1_Corr,Salt2,Salt2Q,Salt2_Corr,SaltAve_Corr,Ox1,Ox1Q,Ox1_CruiseCorr,Ox1_StaCorr,Ox2,Ox2Q,Ox2_CruiseCorr,Ox2_StaCorr,OxAve_StaCorr,Ox1uM,Ox1uM_CruiseCorr,Ox1uM_StaCorr,Ox2uM,Ox2uM_CruiseCorr,Ox2uM_StaCorr,OxAveuM_StaCorr,FluorV,FluorQ,EstChl_CruiseCorr,EstChl_StaCorr,ISUSV,ISUSQ,EstNO3_CruiseCorr,EstNO3_StaCorr,SigThetaTS1,SigThetaTS1Q,SigThetaTS2,SigThetaTS2Q,BAT,XMiss,TransQ,pH,pHQ,SPAR,SPARQ,PAR,PARQ,PoT1,PoT2,DynHt,SVA,OxSat1,OxSat2,BTL_Depth,BTL_Temp,SaltB,OxB,OxBuM,Chl-a,Phaeo,NO3,NO2,NH4,PO4,SIL
CalCOFI,2101RL,037,,2101_037u,23-Jan-2021 23:10:48,23-Jan-2021 15:10:48,33.49172,-119.31702,086.7 045.0,086.7,045.0,517.000,521.349,,6.2983,,6.2997,,6.2990,34.3180,,34.3238,34.3149,,34.3169,34.3204,0.2894,,0.3028,0.2913,0.2964,,0.3128,0.3019,0.2966,12.586,13.4352,31.4742,12.890,14.4482,31.8856,31.6799,0.0327,,,, ,, , ,26.9815,,26.9789,,0.7091,83.7555,,,,1.7202E+03,,1.0000E-12,,6.2516,6.2531,0.8676,114.213,4.200,4.301,,,,,,,,,,,,
CalCOFI,2101RL,037,,2101_037u,23-Jan-2021 23:10:53,23-Jan-2021 15:10:53,33.49173,-119.31704,086.7 045.0,086.7,045.0,516.000,520.339,,6.3009,,6.3022,,6.3016,34.3178,,34.3236,34.3147,,34.3167,34.3202,0.2918,,0.3053,0.2938,0.2940,,0.3103,0.2993,0.2966,12.689,13.5430,31.5516,12.785,14.5628,31.8056,31.6786,0.0323,,,, ,, , ,26.9810,,26.9784,,0.7094,83.7495,,,,1.7234E+03,,1.0000E-12,,6.2543,6.2557,0.8676,114.250,4.234,4.266,516,,34.3101,0.312,13.62,,,,,,,
CalCOFI,2101RL,037,,2101_037u,23-Jan-2021 23:10:59,23-Jan-2021 15:10:59,33.49176,-119.31704,086.7 045.0,086.7,045.0,515.000,519.329,,6.3016,,6.3015,,6.3016,34.3177,,34.3235,34.3148,,34.3168,34.3202,0.2919,,0.3054,0.2939,0.2958,,0.3122,0.3012,0.2976,12.692,13.5462,31.5539,12.865,14.5661,31.8665,31.7102,0.0330,,,, ,, , ,26.9808,,26.9786,,0.7098,83.7395,,,,1.7233E+03,,1.0000E-12,,6.2551,6.2550,0.8676,114.251,4.235,4.293,,,,,,,,,,,,
CalCOFI,2101RL,037,,2101_037u,23-Jan-2021 23:11:02,23-Jan-2021 15:11:02,33.49176,-119.31704,086.7 045.0,086.7,045.0,514.000,518.320,,6.3018,,6.3023,,6.3021,34.3176,,34.3234,34.3147,,34.3167,34.3201,0.2929,,0.3064,0.2950,0.2965,,0.3129,0.3020,0.2985,12.735,13.5912,31.5862,12.893,14.6139,31.8879,31.7371,0.0330,,,, ,, , ,26.9807,,26.9784,,0.7096,83.7441,,,,1.7217E+03,,1.0000E-12,,6.2554,6.2559,0.8676,114.245,4.250,4.302,,,,,,,,,,,,
CalCOFI,2101RL,037,,2101_037u,23-Jan-2021 23:11:03,23-Jan-2021 15:11:03,33.49176,-119.31704,086.7 045.0,086.7,045.0,513.000,517.310,,6.3029,,6.3043,,6.3036,34.3174,,34.3232,34.3146,,34.3166,34.3199,0.2922,,0.3057,0.2943,0.3022,,0.3190,0.3081,0.3012,12.708,13.5629,31.5659,13.144,14.5839,32.0791,31.8225,0.0329,,,, ,, , ,26.9804,,26.9780,,0.7093,83.7514,,,,1.7219E+03,,1.0000E-12,,6.2566,6.2580,0.8676,114.262,4.240,4.386,,,,,,,,,,,,
CalCOFI,2101RL,037,,2101_037u,23-Jan-2021 23:11:04,23-Jan-2021 15:11:04,33.49176,-119.31706,086.7 045.0,086.7,045.0,512.000,516.300,,6.3050,,6.3098,,6.3074,34.3175,,34.3233,34.3141,,34.3161,34.3197,0.2930,,0.3066,0.2951,0.2988,,0.3154,0.3044,0.2998,12.743,13.5996,31.5922,12.992,14.6228,31.9633,31.7778,0.0330,,,, ,, , ,26.9802,,26.9769,,0.7098,83.7401,,,,1.7236E+03,,1.0000E-12,,6.2588,6.2635,0.8676,114.273,4.253,4.336,,,,,,,,,,,,
CalCOFI,2101RL,037,,2101_037u,23-Jan-2021 23:11:05,23-Jan-2021 15:11:05,33.49176,-119.31706,086.7 045.0,086.7,045.0,511.000,515.291,,6.3112,,6.3141,,6.3127,34.3171,,34.3229,34.3139,,34.3159,34.3194,0.2989,,0.3127,0.3013,0.3032,,0.3200,0.3091,0.3052,12.997,13.8655,31.7830,13.186,14.9053,32.1111,31.9471,0.0330,,,, ,, , ,26.9791,,26.9761,,0.7100,83.7357,,,,1.7236E+03,,1.0000E-12,,6.2651,6.2680,0.8676,114.373,4.338,4.401,,,,,,,,,,,,
CalCOFI,2101RL,037,,2101_037u,23-Jan-2021 23:11:06,23-Jan-2021 15:11:06,33.49176,-119.31706,086.7 045.0,086.7,045.0,510.000,514.281,,6.3211,,6.3246,,6.3229,34.3163,,34.3221,34.3132,,34.3152,34.3187,0.3005,,0.3144,0.3030,0.3041,,0.3210,0.3101,0.3066,13.066,13.9377,31.8348,13.224,14.9820,32.1400,31.9874,0.0326,,,, ,, , ,26.9772,,26.9743,,0.7095,83.7472,,,,1.7236E+03,,1.0000E-12,,6.2750,6.2785,0.8676,114.547,4.362,4.415,,,,,,,,,,,,
CalCOFI,2101RL,037,,2101_037u,23-Jan-2021 23:11:06,23-Jan-2021 15:11:06,33.49176,-119.31706,086.7 045.0,086.7,045.0,509.000,513.272,,6.3285,,6.3353,,6.3319,34.3158,,34.3216,34.3124,,34.3144,34.3180,0.2986,,0.3124,0.3010,0.3083,,0.3254,0.3146,0.3078,12.986,13.8539,31.7747,13.409,14.8930,32.2810,32.0279,0.0336,,,, ,, , ,26.9758,,26.9722,,0.7100,83.7358,,,,1.7236E+03,,1.0000E-12,,6.2825,6.2892,0.8676,114.671,4.336,4.478,,,,,,,,,,,,
CalCOFI,2101RL,037,,2101_037u,23-Jan-2021 23:11:07,23-Jan-2021 15:11:07,33.49176,-119.31708,086.7 045.0,086.7,045.0,508.000,512.262,,6.3375,,6.3426,,6.3401,34.3151,,34.3209,34.3121,,34.3141,34.3175,0.3040,,0.3181,0.3067,0.3049,,0.3218,0.3110,0.3089,13.220,14.0989,31.9505,13.260,15.1533,32.1675,32.0590,0.0340,,,, ,, , ,26.9741,,26.9711,,0.7100,83.7358,,,,1.7236E+03,,1.0000E-12,,6.2915,6.2966,0.8676,114.829,4.415,4.428,,,,,,,,,,,,
CalCOFI,2101RL,037,,2101_037u,23-Jan-2021 23:11:08,23-Jan-2021 15:11:08,33.49176,-119.31708,086.7 045.0,086.7,045.0,507.000,511.252,,6.3459,,6.3494,,6.3477,34.3148,,34.3206,34.3116,,34.3136,34.3171,0.3004,,0.3143,0.3029,0.3058,,0.3228,0.3119,0.3074,13.065,13.9366,31.8341,13.300,14.9809,32.1979,32.0160,0.0329,,,, ,, , ,26.9728,,26.9698,,0.7100,83.7358,,,,1.7236E+03,,1.0000E-12,,6.3000,6.3035,0.8676,114.947,4.364,4.442,,,,,,,,,,,,
CalCOFI,2101RL,037,,2101_037u,23-Jan-2021 23:11:10,23-Jan-2021 15:11:10,33.49176,-119.31708,086.7 045.0,086.7,045.0,506.000,510.242,,6.3471,,6.3473,,6.3472,34.3141,,34.3199,34.3120,,34.3140,34.3170,0.3004,,0.3143,0.3029,0.3031,,0.3199,0.3090,0.3060,13.064,13.9356,31.8333,13.182,14.9798,32.1080,31.9707,0.0331,,,, ,, , ,26.9720,,26.9703,,0.7101,83.7329,,,,1.7224E+03,,1.0000E-12,,6.3013,6.3015,0.8676,115.005,4.364,4.403,,,,,,,,,,,,
CalCOFI,2101RL,037,,2101_037u,23-Jan-2021 23:11:11,23-Jan-2021 15:11:11,33.49176,-119.31708,086.7 045.0,086.7,045.0,505.000,509.233,,6.3520,,6.3532,,6.3526,34.3144,,34.3202,34.3113,,34.3133,34.3168,0.3076,,0.3218,0.3105,0.3070,,0.3241,0.3132,0.3119,13.375,14.2612,32.0670,13.350,15.3256,32.2360,32.1515,0.0329,,,, ,, , ,26.9716,,26.9690,,0.7102,83.7312,,,,1.7195E+03,,1.0000E-12,,6.3063,6.3075,0.8676,115.038,4.468,4.460,,,,,,,,,,,,
CalCOFI,2101RL,037,,2101_037u,23-Jan-2021 23:11:12,23-Jan-2021 15:11:12,33.49176,-119.31708,086.7 045.0,086.7,045.0,504.000,508.223,,6.3551,,6.3615,,6.3583,34.3142,,34.3200,34.3109,,34.3129,34.3165,0.3076,,0.3218,0.3105,0.3166,,0.3343,0.3235,0.3170,13.377,14.2632,32.0685,13.770,15.3278,32.5560,32.3123,0.0325,,,, ,, , ,26.9711,,26.9675,,0.7100,83.7359,,,,1.7173E+03,,1.0000E-12,,6.3094,6.3158,0.8676,115.074,4.469,4.601,,,,,,,,,,,,
CalCOFI,2101RL,037,,2101_037u,23-Jan-2021 23:11:12,23-Jan-2021 15:11:12,33.49176,-119.31708,086.7 045.0,086.7,045.0,503.000,507.214,,6.3668,,6.3690,,6.3679,34.3131,,34.3189,34.3102,,34.3122,34.3156,0.3100,,0.3243,0.3130,0.3158,,0.3334,0.3226,0.3178,13.480,14.3711,32.1459,13.734,15.4424,32.5286,32.3373,0.0329,,,, ,, , ,26.9686,,26.9661,,0.7100,83.7358,,,,1.7144E+03,,1.0000E-12,,6.3212,6.3234,0.8676,115.303,4.504,4.590,,,,,,,,,,,,
CalCOFI,2101RL,037,,2101_037u,23-Jan-2021 23:11:13,23-Jan-2021 15:11:13,33.49176,-119.31708,086.7 045.0,086.7,045.0,502.000,506.204,,6.3724,,6.3765,,6.3745,34.3130,,34.3188,34.3099,,34.3119,34.3154,0.3127,,0.3272,0.3158,0.3071,,0.3242,0.3133,0.3146,13.598,14.4946,32.2345,13.357,15.5736,32.2414,32.2380,0.0331,,,, ,, , ,26.9678,,26.9648,,0.7100,83.7358,,,,1.7125E+03,,1.0000E-12,,6.3269,6.3310,0.8676,115.369,4.545,4.464,,,,,,,,,,,,
CalCOFI,2101RL,037,,2101_037u,23-Jan-2021 23:11:13,23-Jan-2021 15:11:13,33.49176,-119.31708,086.7 045.0,086.7,045.0,501.000,505.194,,6.3807,,6.3866,,6.3837,34.3124,,34.3182,34.3091,,34.3111,34.3147,0.3080,,0.3223,0.3109,0.3095,,0.3267,0.3159,0.3134,13.392,14.2789,32.0798,13.461,15.3445,32.3206,32.2002,0.0337,,,, ,, , ,26.9662,,26.9629,,0.7100,83.7358,,,,1.7125E+03,,1.0000E-12,,6.3352,6.3411,0.8676,115.512,4.477,4.500,,,,,,,,,,,,
CalCOFI,2101RL,037,,2101_037u,23-Jan-2021 23:11:14,23-Jan-2021 15:11:14,33.49176,-119.31706,086.7 045.0,086.7,045.0,500.000,504.185,,6.3888,,6.3912,,6.3900,34.3119,,34.3177,34.3089,,34.3109,34.3143,0.3081,,0.3224,0.3110,0.3145,,0.3320,0.3212,0.3161,13.397,14.2842,32.0835,13.678,15.3501,32.4859,32.2847,0.0331,,,, ,, , ,26.9648,,26.9621,,0.7100,83.7358,,,,1.7146E+03,,1.0000E-12,,6.3434,6.3458,0.8676,115.644,4.479,4.573,,,,,,,,,,,,
CalCOFI,2101RL,037,,2101_037u,23-Jan-2021 23:11:14,23-Jan-2021 15:11:14,33.49176,-119.31706,086.7 045.0,086.7,045.0,499.000,503.175,,6.3922,,6.3947,,6.3935,34.3119,,34.3177,34.3087,,34.3107,34.3142,0.3130,,0.3275,0.3162,0.3168,,0.3345,0.3237,0.3200,13.612,14.5092,32.2450,13.778,15.5892,32.5621,32.4036,0.0328,,,, ,, , ,26.9643,,26.9615,,0.7100,83.7358,,,,1.7186E+03,,1.0000E-12,,6.3468,6.3493,0.8676,115.676,4.551,4.607,,,,,,,,,,,,
CalCOFI,2101RL,037,,2101_037u,23-Jan-2021 23:11:15,23-Jan-2021 15:11:15,33.49176,-119.31706,086.7 045.0,086.7,045.0,498.000,502.166,,6.3919,,6.3906,,6.3913,34.3116,,34.3174,34.3088,,34.3108,34.3141,0.3128,,0.3273,0.3160,0.3158,,0.3334,0.3226,0.3193,13.603,14.4998,32.2383,13.733,15.5792,32.5278,32.3831,0.0328,,,, ,, , ,26.9641,,26.9621,,0.7098,83.7411,,,,1.7270E+03,,1.0000E-12,,6.3467,6.3454,0.8676,115.685,4.548,4.591,,,,,,,,,,,,
CalCOFI,2101RL,037,,2101_037u,23-Jan-2021 23:11:17,23-Jan-2021 15:11:17,33.49176,-119.31707,086.7 045.0,086.7,045.0,497.000,501.156,,6.3910,,6.3850,,6.3880,34.3108,,34.3166,34.3095,,34.3115,34.3141,0.3169,,0.3316,0.3203,0.3195,,0.3373,0.3266,0.3235,13.781,14.6862,32.3720,13.896,15.7771,32.6520,32.5120,0.0324,,,, ,, , ,26.9636,,26.9634,,0.7100,83.7356,,,,1.7362E+03,,1.0000E-12,,6.3459,6.3399,0.8676,115.714,4.608,4.645,,,,,,,,,,,,
CalCOFI,2101RL,037,,2101_037u,23-Jan-2021 23:11:18,23-Jan-2021 15:11:18,33.49176,-119.31708,086.7 045.0,086.7,045.0,496.000,500.146,,6.3976,,6.4150,,6.4063,34.3120,,34.3178,34.3071,,34.3091,34.3135,0.3271,,0.3422,0.3310,0.3277,,0.3461,0.3353,0.3332,14.226,15.1520,32.7063,14.252,16.2719,32.9232,32.8148,0.0330,,,, ,, , ,26.9637,,26.9576,,0.7100,83.7358,,,,1.7193E+03,,1.0000E-12,,6.3525,6.3699,0.8676,115.703,4.757,4.768,,,,,,,,,,,,
CalCOFI,2101RL,037,,2101_037u,23-Jan-2021 23:11:19,23-Jan-2021 15:11:19,33.49176,-119.31708,086.7 045.0,086.7,045.0,495.000,499.137,,6.4184,,6.4355,,6.4270,34.3105,,34.3163,34.3063,,34.3083,34.3123,0.3316,,0.3470,0.3358,0.3290,,0.3474,0.3367,0.3363,14.419,15.3540,32.8513,14.308,16.4866,32.9659,32.9086,0.0334,,,, ,, , ,26.9598,,26.9543,,0.7093,83.7503,,,,1.7028E+03,,1.0000E-12,,6.3733,6.3904,0.8676,116.076,4.824,4.788,,,,,,,,,,,,
CalCOFI,2101RL,037,,2101_037u,23-Jan-2021 23:11:19,23-Jan-2021 15:11:19,33.49176,-119.31708,086.7 045.0,086.7,045.0,494.000,498.127,,6.4600,,6.4670,,6.4635,34.3080,,34.3138,34.3042,,34.3062,34.3100,0.3354,,0.3509,0.3398,0.3352,,0.3540,0.3434,0.3416,14.586,15.5288,32.9768,14.579,16.6723,33.1724,33.0746,0.0322,,,, ,, , ,26.9523,,26.9485,,0.7091,83.7557,,,,1.7130E+03,,1.0000E-12,,6.4149,6.4219,0.8676,116.812,4.885,4.883,,,,,,,,,,,,
CalCOFI,2101RL,037,,2101_037u,23-Jan-2021 23:11:20,23-Jan-2021 15:11:20,33.49176,-119.31708,086.7 045.0,086.7,045.0,493.000,497.118,,6.4798,,6.4769,,6.4784,34.3061,,34.3119,34.3039,,34.3059,34.3089,0.3352,,0.3507,0.3395,0.3353,,0.3541,0.3435,0.3415,14.579,15.5215,32.9715,14.581,16.6645,33.1739,33.0727,0.0326,,,, ,, , ,26.9482,,26.9469,,0.7099,83.7385,,,,1.7128E+03,,1.0000E-12,,6.4347,6.4318,0.8676,117.205,4.884,4.884,,,,,,,,,,,,
CalCOFI,2101RL,037,,2101_037u,23-Jan-2021 23:11:21,23-Jan-2021 15:11:21,33.49176,-119.31708,086.7 045.0,086.7,045.0,492.000,496.108,,6.4798,,6.4862,,6.4830,34.3068,,34.3126,34.3032,,34.3052,34.3089,0.3345,,0.3500,0.3388,0.3340,,0.3527,0.3421,0.3405,14.547,15.4880,32.9475,14.524,16.6289,33.1305,33.0390,0.0328,,,, ,, , ,26.9488,,26.9451,,0.7097,83.7429,,,,1.7165E+03,,1.0000E-12,,6.4348,6.4412,0.8676,117.140,4.874,4.866,,,,,,,,,,,,
CalCOFI,2101RL,037,,2101_037u,23-Jan-2021 23:11:22,23-Jan-2021 15:11:22,33.49176,-119.31708,086.7 045.0,086.7,045.0,491.000,495.099,,6.4856,,6.4895,,6.4876,34.3059,,34.3117,34.3029,,34.3049,34.3083,0.3346,,0.3501,0.3389,0.3381,,0.3571,0.3465,0.3427,14.551,15.4922,32.9505,14.704,16.6334,33.2676,33.1091,0.0322,,,, ,, , ,26.9473,,26.9445,,0.7100,83.7358,,,,1.7191E+03,,1.0000E-12,,6.4407,6.4446,0.8676,117.270,4.875,4.927,,,,,,,,,,,,
CalCOFI,2101RL,037,,2101_037u,23-Jan-2021 23:11:23,23-Jan-2021 15:11:23,33.49176,-119.31708,086.7 045.0,086.7,045.0,490.000,494.089,,6.4877,,6.4914,,6.4896,34.3058,,34.3116,34.3025,,34.3045,34.3081,0.3369,,0.3525,0.3413,0.3352,,0.3540,0.3434,0.3424,14.651,15.5969,33.0256,14.577,16.7446,33.1709,33.0983,0.0334,,,, ,, , ,26.9470,,26.9439,,0.7100,83.7358,,,,1.7186E+03,,1.0000E-12,,6.4428,6.4465,0.8676,117.287,4.909,4.885,,,,,,,,,,,,
CalCOFI,2101RL,037,,2101_037u,23-Jan-2021 23:11:24,23-Jan-2021 15:11:24,33.49176,-119.31708,086.7 045.0,086.7,045.0,489.000,493.080,,6.4920,,6.4952,,6.4936,34.3051,,34.3109,34.3024,,34.3044,34.3077,0.3396,,0.3553,0.3442,0.3396,,0.3587,0.3481,0.3462,14.770,15.7214,33.1150,14.769,16.8769,33.3171,33.2161,0.0323,,,, ,, , ,26.9458,,26.9433,,0.7100,83.7358,,,,1.7181E+03,,1.0000E-12,,6.4472,6.4504,0.8676,117.385,4.950,4.949,,,,,,,,,,,,
CalCOFI,2101RL,037,,2101_037u,23-Jan-2021 23:11:25,23-Jan-2021 15:11:25,33.49176,-119.31708,086.7 045.0,086.7,045.0,488.000,492.070,,6.4948,,6.4958,,6.4953,34.3054,,34.3112,34.3024,,34.3044,34.3078,0.3382,,0.3539,0.3427,0.3463,,0.3658,0.3552,0.3490,14.710,15.6586,33.0699,15.061,16.8102,33.5396,33.3048,0.0325,,,, ,, , ,26.9457,,26.9432,,0.7100,83.7358,,,,1.7155E+03,,1.0000E-12,,6.4501,6.4511,0.8676,117.387,4.930,5.047,,,,,,,,,,,,
CalCOFI,2101RL,037,,2101_037u,23-Jan-2021 23:11:25,23-Jan-2021 15:11:25,33.49176,-119.31708,086.7 045.0,086.7,045.0,487.000,491.060,,6.5041,,6.5039,,6.5040,34.3047,,34.3105,34.3019,,34.3039,34.3072,0.3428,,0.3587,0.3475,0.3496,,0.3693,0.3587,0.3531,14.910,15.8680,33.2202,15.203,17.0326,33.6478,33.4340,0.0322,,,, ,, , ,26.9439,,26.9417,,0.7100,83.7358,,,,1.7133E+03,,1.0000E-12,,6.4595,6.4593,0.8676,117.551,4.998,5.096,,,,,,,,,,,,
CalCOFI,2101RL,037,,2101_037u,23-Jan-2021 23:11:26,23-Jan-2021 15:11:26,33.49176,-119.31708,086.7 045.0,086.7,045.0,486.000,490.051,,6.5118,,6.5131,,6.5125,34.3041,,34.3099,34.3012,,34.3032,34.3066,0.3433,,0.3592,0.3481,0.3500,,0.3697,0.3592,0.3537,14.928,15.8868,33.2337,15.222,17.0526,33.6623,33.4480,0.0330,,,, ,, , ,26.9424,,26.9399,,0.7100,83.7358,,,,1.7144E+03,,1.0000E-12,,6.4673,6.4685,0.8676,117.686,5.005,5.103,,,,,,,,,,,,
CalCOFI,2101RL,037,,2101_037u,23-Jan-2021 23:11:27,23-Jan-2021 15:11:27,33.49176,-119.31708,086.7 045.0,086.7,045.0,485.000,489.041,,6.5183,,6.5232,,6.5208,34.3039,,34.3097,34.3005,,34.3025,34.3061,0.3456,,0.3616,0.3505,0.3449,,0.3643,0.3537,0.3521,15.029,15.9926,33.3096,15.000,17.1649,33.4931,33.4014,0.0332,,,, ,, , ,26.9414,,26.9380,,0.7100,83.7358,,,,1.7172E+03,,1.0000E-12,,6.4738,6.4787,0.8676,117.774,5.039,5.030,,,,,,,,,,,,
CalCOFI,2101RL,037,,2101_037u,23-Jan-2021 23:11:28,23-Jan-2021 15:11:28,33.49176,-119.31708,086.7 045.0,086.7,045.0,484.000,488.032,,6.5245,,6.5307,,6.5276,34.3035,,34.3093,34.3000,,34.3020,34.3057,0.3449,,0.3609,0.3498,0.3473,,0.3669,0.3563,0.3531,15.000,15.9622,33.2878,15.104,17.1326,33.5724,33.4301,0.0328,,,, ,, , ,26.9402,,26.9366,,0.7098,83.7401,,,,1.7213E+03,,1.0000E-12,,6.4801,6.4863,0.8676,117.874,5.030,5.066,,,,,,,,,,,,
CalCOFI,2101RL,037,,2101_037u,23-Jan-2021 23:11:29,23-Jan-2021 15:11:29,33.49176,-119.31708,086.7 045.0,086.7,045.0,483.000,487.022,,6.5289,,6.5344,,6.5317,34.3030,,34.3088,34.2996,,34.3016,34.3052,0.3490,,0.3652,0.3541,0.3522,,0.3721,0.3615,0.3578,15.176,16.1464,33.4200,15.316,17.3284,33.7339,33.5770,0.0327,,,, ,, , ,26.9392,,26.9359,,0.7092,83.7522,,,,1.7265E+03,,1.0000E-12,,6.4846,6.4901,0.8676,117.960,5.090,5.138,,,,,,,,,,,,
CalCOFI,2101RL,037,,2101_037u,23-Jan-2021 23:11:30,23-Jan-2021 15:11:30,33.49177,-119.31708,086.7 045.0,086.7,045.0,482.000,486.013,,6.5347,,6.5398,,6.5373,34.3023,,34.3081,34.2992,,34.3012,34.3047,0.3516,,0.3679,0.3568,0.3516,,0.3714,0.3609,0.3589,15.289,16.2647,33.5049,15.289,17.4540,33.7133,33.6091,0.0327,,,, ,, , ,26.9379,,26.9348,,0.7100,83.7356,,,,1.7215E+03,,1.0000E-12,,6.4904,6.4956,0.8676,118.071,5.129,5.129,,,,,,,,,,,,
CalCOFI,2101RL,037,,2101_037u,23-Jan-2021 23:11:31,23-Jan-2021 15:11:31,33.49178,-119.31708,086.7 045.0,086.7,045.0,481.000,485.003,,6.5397,,6.5654,,6.5526,34.3020,,34.3078,34.2978,,34.2998,34.3038,0.3611,,0.3778,0.3668,0.3582,,0.3784,0.3679,0.3674,15.704,16.6991,33.8167,15.579,17.9155,33.9343,33.8755,0.0322,,,, ,, , ,26.9370,,26.9303,,0.7100,83.7358,,,,1.7162E+03,,1.0000E-12,,6.4956,6.5211,0.8676,118.150,5.268,5.229,,,,,,,,,,,,
CalCOFI,2101RL,037,,2101_037u,23-Jan-2021 23:11:32,23-Jan-2021 15:11:32,33.49178,-119.31708,086.7 045.0,086.7,045.0,480.000,483.994,,6.5584,,6.5799,,6.5692,34.3006,,34.3064,34.2967,,34.2987,34.3026,0.3653,,0.3822,0.3712,0.3660,,0.3867,0.3763,0.3738,15.887,16.8907,33.9542,15.918,18.1190,34.1925,34.0734,0.0322,,,, ,, , ,26.9334,,26.9275,,0.7100,83.7358,,,,1.7125E+03,,1.0000E-12,,6.5143,6.5357,0.8676,118.494,5.332,5.345,,,,,,,,,,,,
CalCOFI,2101RL,037,,2101_037u,23-Jan-2021 23:11:33,23-Jan-2021 15:11:33,33.49178,-119.31708,086.7 045.0,086.7,045.0,479.000,482.984,,6.5875,,6.5866,,6.5871,34.3002,,34.3060,34.2964,,34.2984,34.3022,0.3646,,0.3815,0.3705,0.3659,,0.3866,0.3762,0.3734,15.856,16.8583,33.9309,15.913,18.0845,34.1887,34.0598,0.0330,,,, ,, , ,26.9293,,26.9264,,0.7098,83.7408,,,,1.7125E+03,,1.0000E-12,,6.5433,6.5424,0.8676,118.902,5.325,5.344,,,,,,,,,,,,
CalCOFI,2101RL,037,,2101_037u,23-Jan-2021 23:11:34,23-Jan-2021 15:11:34,33.49178,-119.31710,086.7 045.0,086.7,045.0,478.000,481.975,,6.6047,,6.6095,,6.6071,34.2980,,34.3038,34.2951,,34.2971,34.3005,0.3689,,0.3860,0.3750,0.3604,,0.3808,0.3703,0.3727,16.042,17.0530,34.0706,15.673,18.2914,34.0059,34.0383,0.0321,,,, ,, , ,26.9252,,26.9223,,0.7100,83.7359,,,,1.7145E+03,,1.0000E-12,,6.5606,6.5654,0.8676,119.289,5.389,5.266,,,,,,,,,,,,
CalCOFI,2101RL,037,,2101_037u,23-Jan-2021 23:11:34,23-Jan-2021 15:11:34,33.49178,-119.31710,086.7 045.0,086.7,045.0,477.000,480.965,,6.6077,,6.6136,,6.6107,34.2981,,34.3039,34.2949,,34.2969,34.3004,0.3683,,0.3854,0.3744,0.3711,,0.3921,0.3817,0.3781,16.018,17.0278,34.0526,16.140,18.2647,34.3617,34.2072,0.0326,,,, ,, , ,26.9249,,26.9216,,0.7100,83.7358,,,,1.7174E+03,,1.0000E-12,,6.5636,6.5695,0.8676,119.304,5.382,5.423,,,,,,,,,,,,
CalCOFI,2101RL,037,,2101_037u,23-Jan-2021 23:11:35,23-Jan-2021 15:11:35,33.49178,-119.31710,086.7 045.0,086.7,045.0,476.000,479.956,,6.6106,,6.6145,,6.6126,34.2978,,34.3036,34.2948,,34.2968,34.3002,0.3661,,0.3831,0.3721,0.3745,,0.3958,0.3854,0.3788,15.923,16.9284,33.9812,16.286,18.1590,34.4729,34.2271,0.0330,,,, ,, , ,26.9243,,26.9214,,0.7102,83.7324,,,,1.7181E+03,,1.0000E-12,,6.5666,6.5705,0.8676,119.352,5.350,5.473,,,,,,,,,,,,
CalCOFI,2101RL,037,,2101_037u,23-Jan-2021 23:11:36,23-Jan-2021 15:11:36,33.49178,-119.31710,086.7 045.0,086.7,045.0,475.000,478.947,,6.6130,,6.6194,,6.6162,34.2977,,34.3035,34.2945,,34.2965,34.3000,0.3725,,0.3898,0.3788,0.3732,,0.3944,0.3840,0.3814,16.199,17.2173,34.1886,16.229,18.4660,34.4295,34.3091,0.0326,,,, ,, , ,26.9238,,26.9204,,0.7100,83.7358,,,,1.7181E+03,,1.0000E-12,,6.5691,6.5756,0.8676,119.380,5.443,5.454,,,,,,,,,,,,
CalCOFI,2101RL,037,,2101_037u,23-Jan-2021 23:11:37,23-Jan-2021 15:11:37,33.49178,-119.31710,086.7 045.0,086.7,045.0,474.000,477.937,,6.6215,,6.6270,,6.6243,34.2972,,34.3030,34.2940,,34.2960,34.2995,0.3753,,0.3927,0.3818,0.3671,,0.3879,0.3775,0.3797,16.320,17.3440,34.2795,15.965,18.6005,34.2283,34.2539,0.0327,,,, ,, , ,26.9223,,26.9191,,0.7094,83.7483,,,,1.7181E+03,,1.0000E-12,,6.5777,6.5832,0.8676,119.516,5.485,5.366,,,,,,,,,,,,
CalCOFI,2101RL,037,,2101_037u,23-Jan-2021 23:11:38,23-Jan-2021 15:11:38,33.49178,-119.31710,086.7 045.0,086.7,045.0,473.000,476.927,,6.6292,,6.6344,,6.6318,34.2964,,34.3022,34.2935,,34.2955,34.2989,0.3731,,0.3904,0.3795,0.3743,,0.3955,0.3851,0.3823,16.228,17.2477,34.2104,16.277,18.4982,34.4660,34.3382,0.0323,,,, ,, , ,26.9207,,26.9177,,0.7100,83.7360,,,,1.7166E+03,,1.0000E-12,,6.5854,6.5906,0.8676,119.662,5.455,5.472,,,,,,,,,,,,
CalCOFI,2101RL,037,,2101_037u,23-Jan-2021 23:11:39,23-Jan-2021 15:11:39,33.49178,-119.31710,086.7 045.0,086.7,045.0,472.000,475.918,,6.6365,,6.6392,,6.6379,34.2959,,34.3017,34.2932,,34.2952,34.2985,0.3731,,0.3904,0.3795,0.3799,,0.4015,0.3911,0.3853,16.226,17.2456,34.2089,16.521,18.4960,34.6519,34.4304,0.0330,,,, ,, , ,26.9193,,26.9168,,0.7100,83.7358,,,,1.7140E+03,,1.0000E-12,,6.5928,6.5956,0.8676,119.791,5.455,5.555,,,,,,,,,,,,
CalCOFI,2101RL,037,,2101_037u,23-Jan-2021 23:11:39,23-Jan-2021 15:11:39,33.49178,-119.31710,086.7 045.0,086.7,045.0,471.000,474.909,,6.6428,,6.6445,,6.6437,34.2956,,34.3014,34.2928,,34.2948,34.2981,0.3816,,0.3993,0.3884,0.3739,,0.3951,0.3847,0.3866,16.596,17.6329,34.4868,16.261,18.9074,34.4538,34.4703,0.0326,,,, ,, , ,26.9182,,26.9158,,0.7096,83.7440,,,,1.7125E+03,,1.0000E-12,,6.5992,6.6009,0.8676,119.881,5.581,5.468,,,,,,,,,,,,
CalCOFI,2101RL,037,,2101_037u,23-Jan-2021 23:11:40,23-Jan-2021 15:11:40,33.49178,-119.31712,086.7 045.0,086.7,045.0,470.000,473.899,,6.6446,,6.6520,,6.6483,34.2957,,34.3015,34.2923,,34.2943,34.2979,0.3838,,0.4016,0.3907,0.3849,,0.4068,0.3965,0.3936,16.690,17.7313,34.5574,16.739,19.0120,34.8180,34.6877,0.0337,,,, ,, , ,26.9180,,26.9143,,0.7100,83.7359,,,,1.7146E+03,,1.0000E-12,,6.6011,6.6085,0.8676,119.890,5.612,5.630,,,,,,,,,,,,
CalCOFI,2101RL,037,,2101_037u,23-Jan-2021 23:11:41,23-Jan-2021 15:11:41,33.49178,-119.31712,086.7 045.0,086.7,045.0,469.000,472.890,,6.6573,,6.6654,,6.6614,34.2950,,34.3008,34.2916,,34.2936,34.2972,0.3837,,0.4015,0.3906,0.3908,,0.4131,0.4028,0.3967,16.688,17.7292,34.5559,16.998,19.0097,35.0153,34.7856,0.0323,,,, ,, , ,26.9157,,26.9120,,0.7100,83.7358,,,,1.7176E+03,,1.0000E-12,,6.6138,6.6219,0.8676,120.099,5.613,5.718,,,,,,,,,,,,
CalCOFI,2101RL,037,,2101_037u,23-Jan-2021 23:11:42,23-Jan-2021 15:11:42,33.49178,-119.31712,086.7 045.0,086.7,045.0,468.000,471.880,,6.6706,,6.6778,,6.6742,34.2940,,34.2998,34.2908,,34.2928,34.2963,0.3866,,0.4045,0.3937,0.3844,,0.4063,0.3959,0.3948,16.816,17.8632,34.6521,16.719,19.1521,34.8028,34.7275,0.0326,,,, ,, , ,26.9132,,26.9097,,0.7100,83.7366,,,,1.7192E+03,,1.0000E-12,,6.6272,6.6344,0.8676,120.335,5.658,5.626,,,,,,,,,,,,
CalCOFI,2101RL,037,,2101_037u,23-Jan-2021 23:11:44,23-Jan-2021 15:11:44,33.49178,-119.31712,086.7 045.0,086.7,045.0,467.000,470.871,,6.6786,,6.6825,,6.6806,34.2931,,34.2989,34.2905,,34.2925,34.2957,0.3876,,0.4056,0.3947,0.3807,,0.4023,0.3920,0.3934,16.856,17.9051,34.6821,16.558,19.1965,34.6801,34.6811,0.0330,,,, ,, , ,26.9114,,26.9088,,0.7102,83.7321,,,,1.7188E+03,,1.0000E-12,,6.6352,6.6391,0.8676,120.498,5.672,5.573,,,,,,,,,,,,
CalCOFI,2101RL,037,,2101_037u,23-Jan-2021 23:11:45,23-Jan-2021 15:11:45,33.49178,-119.31712,086.7 045.0,086.7,045.0,466.000,469.861,,6.6778,,6.6805,,6.6792,34.2935,,34.2993,34.2903,,34.2923,34.2958,0.3873,,0.4052,0.3944,0.3871,,0.4091,0.3988,0.3966,16.843,17.8915,34.6724,16.833,19.1821,34.8896,34.7810,0.0333,,,, ,, , ,26.9118,,26.9089,,0.7101,83.7327,,,,1.7178E+03,,1.0000E-12,,6.6345,6.6373,0.8676,120.447,5.668,5.665,,,,,,,,,,,,
CalCOFI,2101RL,037,,2101_037u,23-Jan-2021 23:11:46,23-Jan-2021 15:11:46,33.49178,-119.31712,086.7 045.0,086.7,045.0,465.000,468.852,,6.6760,,6.6844,,6.6802,34.2936,,34.2994,34.2898,,34.2918,34.2956,0.3927,,0.4109,0.4001,0.3914,,0.4137,0.4034,0.4018,17.080,18.1395,34.8504,17.023,19.4456,35.0344,34.9424,0.0329,,,, ,, , ,26.9121,,26.9080,,0.7100,83.7358,,,,1.7159E+03,,1.0000E-12,,6.6328,6.6413,0.8676,120.397,5.747,5.729,,,,,,,,,,,,